#timestamp,LO_Frequency,Hit,StdDev 
1637359215.1,286047000.6,N
1637359216.0,286047000.6,N
1637359235.8,286047000.9,N
1637359255.7,286047000.3,N
1637359275.5,286047000.8,N
1637359295.3,286046999.0,N
1637359315.2,286046999.2,N
1637359335.0,286046999.1,N
1637359335.9,286046999.1,N
1637359355.8,286046996.6,N
1637359375.6,286046996.8,N
1637359395.4,286046996.6,N
1637359415.3,286046998.3,N
1637359435.1,286046998.9,N
1637359436.0,286046998.9,N
1637359455.8,286046996.5,N
1637359475.7,286046999.3,N
1637359495.5,286046998.5,N
1637359515.3,286046998.2,N
1637359535.2,286046999.0,N
1637359555.0,286046999.0,N
1637359555.9,286046999.0,N
1637359575.8,286046999.3,N
1637359595.6,286046996.6,N
1637359615.4,286046995.0,N
1637359635.3,286046997.4,N
1637359655.1,286046997.0,N
1637359675.8,286046997.5,N
1637359695.7,286046997.7,N
1637359715.5,286046997.1,N
1637359735.4,286046996.6,N
1637359755.2,286046996.9,N
1637359775.0,286046997.1,N
1637359775.9,286046997.1,N
1637359795.8,286046998.9,N
1637359815.6,286046998.6,N
1637359835.4,286047000.7,N
1637359855.3,286047000.7,N
1637359875.1,286046998.9,N
1637359895.8,286047000.4,N
1637359915.7,286047000.8,N
1637359935.5,286046998.7,N
1637359955.4,286046999.3,N
1637359975.2,286046998.4,N
1637359995.0,286046998.1,N
1637359995.9,286046998.1,N
1637360015.8,286047011.9,Y
1637360035.6,286047000.1,P
1637360055.4,286046999.7,N
1637360075.3,286046999.9,N
1637360095.1,286047001.2,N
1637360115.8,286047000.6,N
1637360135.7,286047002.8,Y
1637360155.5,286047002.4,P
1637360175.4,286047000.4,N
1637360195.2,286047001.1,N
1637360215.0,286047000.2,N
1637360215.9,286047000.2,N
1637360235.8,286047000.5,N
1637360255.6,286046998.6,N
1637360275.4,286046998.6,N
1637360295.3,286047000.8,N
1637360315.1,286047000.6,N
1637360335.8,286047001.1,N
1637360355.7,286046998.1,N
1637360375.5,286047000.9,N
1637360395.4,286047000.9,N
1637360415.2,286046998.8,N
1637360435.0,286046998.8,N
1637360435.9,286046998.8,N
1637360455.8,286047000.4,N
1637360475.6,286047001.1,N
1637360495.4,286046998.1,N
1637360515.3,286047000.7,N
1637360535.1,286047000.1,N
1637360555.8,286047001.0,N
1637360575.7,286047000.7,N
1637360595.5,286047000.4,N
1637360615.4,286047000.5,N
1637360635.2,286047000.7,N
1637360655.0,286047001.1,N
1637360655.9,286047001.1,N
1637360675.8,286047000.9,N
1637360695.6,286047000.6,N
1637360715.4,286046998.2,N
1637360735.3,286046998.4,N
1637360755.1,286046998.3,N
1637360775.8,286046998.6,N
1637360795.7,286046998.4,N
1637360815.5,286046996.5,Y
1637360835.4,286046998.9,P
1637360855.2,286046998.5,P
1637360875.0,286047000.7,N
1637360875.9,286047000.7,N
1637360895.8,286046998.3,N
1637360915.6,286046998.3,N
1637360935.4,286047001.0,N
1637360955.3,286047001.2,N
1637360975.1,286046998.2,N
1637360995.8,286046998.2,N
1637361015.7,286047001.1,N
1637361035.5,286046999.0,N
1637361055.4,286046999.6,N
1637361075.2,286046999.4,N
1637361095.0,286047000.8,N
1637361095.9,286047000.8,N
1637361115.8,286047000.5,N
1637361135.6,286047001.2,N
1637361155.4,286046998.2,N
1637361175.3,286046998.6,N
1637361195.1,286046998.6,N
1637361215.8,286047000.3,N
1637361235.7,286047001.0,N
1637361255.5,286047000.0,N
1637361275.4,286046999.8,N
1637361295.2,286047000.9,N
1637361315.0,286047000.2,N
1637361315.9,286047000.2,N
1637361335.8,286047002.1,N
1637361355.6,286047002.7,N
1637361375.4,286047000.6,N
1637361395.3,286047000.4,N
1637361415.1,286047000.1,N
1637361435.8,286047002.5,N
1637361455.7,286047001.1,N
1637361475.5,286046998.1,N
1637361495.3,286047000.6,N
1637361515.2,286047000.6,N
1637361535.0,286047001.2,N
1637361535.9,286047001.2,N
1637361555.8,286047001.1,N
1637361575.6,286047000.0,N
1637361595.4,286046998.1,N
1637361615.3,286046998.7,N
1637361635.1,286046999.3,N
1637361636.0,286046999.3,N
1637361655.8,286047000.1,N
1637361675.7,286047000.1,N
1637361695.5,286047000.3,N
1637361715.3,286047000.5,N
1637361735.2,286046999.8,N
1637361755.0,286047002.3,N
1637361755.9,286047002.3,N
1637361775.7,286047000.9,N
1637361795.6,286047002.4,N
1637361815.4,286047000.0,N
1637361835.3,286047002.4,N
1637361855.1,286046999.7,N
1637361856.0,286046999.7,N
1637361875.8,286047000.1,N
1637361895.7,286047001.5,N
1637361915.5,286047001.6,N
1637361935.3,286047000.3,N
1637361955.2,286047000.3,N
1637361975.0,286047001.6,N
1637361975.9,286047001.6,N
1637361995.7,286047001.5,N
1637362015.6,286047001.7,N
1637362035.4,286047005.5,Y
1637362055.3,286047005.1,P
1637362075.1,286047005.4,N
1637362076.0,286047005.4,N
1637362095.8,286047005.9,N
1637362115.7,286047005.6,N
1637362135.5,286047004.5,N
1637362155.3,286047006.9,Y
1637362175.2,286047001.5,P
1637362195.0,286047002.6,N
1637362195.9,286047002.6,N
1637362215.7,286047001.9,N
1637362235.6,286047002.4,N
1637362255.4,286046999.8,N
1637362275.3,286047000.4,N
1637362295.1,286047000.5,N
1637362296.0,286047000.5,N
1637362315.8,286046999.8,N
1637362335.7,286046999.8,N
1637362355.5,286047000.3,N
1637362375.3,286047000.3,N
1637362395.2,286047000.8,N
1637362415.0,286046998.8,N
1637362415.9,286046998.8,N
1637362435.7,286046999.3,N
1637362455.6,286046999.0,N
1637362475.4,286046999.0,N
1637362495.3,286046999.5,N
1637362515.1,286046998.9,N
1637362516.0,286046998.9,N
1637362535.8,286046998.7,N
1637362555.7,286046998.8,N
1637362575.5,286046999.1,N
1637362595.3,286046999.2,N
1637362615.2,286046999.3,N
1637362635.0,286046998.5,N
1637362635.9,286046998.5,N
1637362655.7,286046999.3,N
1637362675.6,286046999.4,N
1637362695.4,286046998.7,N
1637362715.3,286046996.9,N
1637362735.1,286046997.2,N
1637362736.0,286046997.2,N
1637362755.8,286046997.7,N
1637362775.7,286046997.3,N
1637362795.5,286046997.9,N
